Location: Caltech
(34.1382°N, 118.1253°W)
Time: 00:47:26
(UTC-07:00)

Cosmos 1758 Rocket - Visible Passes

Search period start: 25 June 2018 00:00
Search period end: 05 July 2018 00:00
Orbit: 601 x 637 km, 82.5° (Epoch: 24 June)

Date Brightness Start Highest point End Pass type
(mag) Time Alt. Az. Time Alt. Az. Time Alt. Az.
25 Jun 6.4 21:59:36 10° WSW 22:02:19 16° WNW 22:05:01 10° NW visible
26 Jun 3.6 20:37:16 10° S 20:41:41 71° E 20:46:04 10° NNE visible
27 Jun 4.3 20:54:43 10° SSW 20:59:04 56° W 21:03:24 10° N visible
28 Jun 5.7 21:12:44 10° SW 21:16:32 28° WNW 21:20:20 10° NNW visible
29 Jun 6.5 21:31:37 10° WSW 21:34:07 15° WNW 21:36:36 10° NW visible
02 Jul 6.0 20:44:37 10° SW 20:48:19 26° WNW 20:52:00 10° NNW visible
03 Jul 6.7 21:03:39 10° WSW 21:05:54 14° WNW 21:08:08 10° NW visible
